MST,Max TemperatureF,Mean TemperatureF,Min TemperatureF,Max Dew PointF,MeanDew PointF,Min DewpointF,Max Humidity, Mean Humidity, Min Humidity, Max Sea Level PressureIn, Mean Sea Level PressureIn, Min Sea Level PressureIn, Max VisibilityMiles, Mean VisibilityMiles, Min VisibilityMiles, Max Wind SpeedMPH, Mean Wind SpeedMPH, Max Gust SpeedMPH,PrecipitationIn, CloudCover, Events, WindDirDegrees
2014-1-1,22,12,1,13,4,-3,95,82,68,30.48,30.35,30.15,10,9,2,17,6,20,0.02,8,Snow,29
2014-1-2,19,12,4,10,6,1,91,79,67,30.44,30.27,29.95,10,8,2,14,8,16,0.03,4,Snow,89
2014-1-3,46,26,6,32,23,2,80,67,53,29.90,29.63,29.41,10,10,10,43,11,53,0.01,4,Rain,282
2014-1-4,26,15,4,18,6,-3,83,67,51,30.43,30.18,29.89,10,10,9,30,14,38,T,4,,346
2014-1-5,7,-1,-10,-3,-14,-22,79,63,47,30.76,30.57,30.39,10,8,2,37,20,43,T,6,Snow,323
2014-1-6,10,1,-9,0,-10,-19,76,63,49,30.62,30.43,30.06,10,10,10,23,9,29,0.00,3,,309
2014-1-7,28,19,10,18,11,1,80,72,63,30.24,30.11,30.01,10,10,6,17,6,21,T,4,Snow,20
2014-1-8,30,22,13,20,13,8,88,78,68,30.30,30.17,29.96,10,10,10,18,10,22,T,5,,100
2014-1-9,47,33,19,27,22,17,85,64,42,29.93,29.75,29.61,10,10,10,18,5,22,0.00,1,,256
2014-1-10,42,35,27,30,24,21,81,65,48,29.69,29.64,29.58,10,10,10,22,8,28,0.00,5,,282
2014-1-11,48,38,27,32,28,23,85,65,45,29.85,29.63,29.33,10,10,10,25,11,33,0.00,0,,253
2014-1-12,48,40,31,32,28,24,82,64,45,29.83,29.58,29.37,10,10,10,26,12,33,T,3,Rain,282
2014-1-13,46,36,26,33,28,22,84,69,53,29.93,29.75,29.64,10,10,10,41,16,53,T,4,Rain,282
2014-1-14,36,31,25,23,21,16,75,64,53,30.32,30.23,30.00,10,10,10,36,19,45,T,3,,318
2014-1-15,48,37,26,29,25,21,81,62,42,30.20,29.93,29.80,10,10,10,39,16,48,0.00,6,,272
2014-1-16,38,29,19,21,17,14,84,64,43,30.30,30.12,29.91,10,10,10,47,24,61,0.00,1,,312
2014-1-17,48,33,18,26,20,14,84,59,34,30.25,30.02,29.80,10,10,10,25,11,32,0.00,2,,269
2014-1-18,43,36,29,26,24,19,69,57,45,30.16,30.00,29.81,10,10,10,41,19,51,0.00,3,,307
2014-1-19,54,43,31,27,24,22,78,53,28,29.94,29.85,29.80,10,10,10,32,11,40,0.00,0,,284
2014-1-20,38,23,7,24,12,1,80,65,50,30.56,30.31,29.97,10,10,8,39,17,48,0.05,2,Snow,352
2014-1-21,47,27,6,24,15,1,80,58,36,30.48,30.20,30.01,10,10,10,32,14,38,0.00,2,,323
2014-1-22,31,14,-4,20,6,-10,75,63,50,30.80,30.39,30.12,10,9,2,30,13,37,T,5,Snow,6
2014-1-23,30,12,-7,12,-1,-13,83,59,34,30.86,30.59,30.14,10,10,10,18,7,22,0.00,0,,252
2014-1-24,54,40,26,32,27,12,62,52,41,30.09,29.96,29.81,10,10,10,41,22,56,0.00,6,,300
2014-1-25,56,47,37,34,31,27,76,56,35,30.06,29.87,29.60,10,10,10,31,15,40,T,6,Rain,293
2014-1-26,44,24,4,29,10,-7,75,58,40,30.45,29.99,29.62,10,10,7,48,24,60,T,2,Snow,323
2014-1-27,16,7,-2,-5,-7,-8,79,58,36,30.53,30.49,30.43,10,10,10,16,6,24,0.00,1,,328
2014-1-28,24,10,-4,1,-2,-9,79,58,36,30.49,30.32,30.07,10,10,10,20,7,24,0.00,1,,279
2014-1-29,52,29,5,30,13,-1,76,51,26,30.03,29.67,29.32,10,10,10,21,9,24,T,2,,276
2014-1-30,27,17,7,19,9,3,84,73,61,30.13,29.86,29.40,10,9,2,24,11,29,T,6,Snow,345
2014-1-31,39,23,6,19,10,1,80,62,44,30.12,29.96,29.78,10,10,10,21,7,26,0.00,3,,257